FW7106 Weather Reports


time (UTC)temp
F
wind
direction
speed
knots
gust
knots
rain 1hr
in
rain 24hr
in
rain mn
in
humidity
%
barometer
mb
20260509201236 93 293 0.9 0.9 0.00 0.00 0.00 63 1007.7
20260509200732 94 291 0.9 0.9 0.00 0.00 0.00 63 1007.5
20260509200227 95 277 0.9 1.7 0.00 0.00 0.00 62 1007.5
20260509195723 94 323 0.0 0.0 0.00 0.00 0.00 65 1007.5
20260509195218 92 342 0.0 0.0 0.00 0.00 0.00 68 1007.6
20260509194713 91 344 0.0 0.0 0.00 0.00 0.00 71 1007.6
20260509194210 91 102 1.7 1.7 0.00 0.00 0.00 70 1007.5
20260509193707 89 91 0.0 0.0 0.00 0.00 0.00 73 1007.5
20260509193206 91 150 1.7 2.6 0.00 0.00 0.00 68 1007.7
20260509192703 90 188 0.9 0.9 0.00 0.00 0.00 70 1007.9
20260509192158 91 41 0.9 0.9 0.00 0.00 0.00 70 1007.8
20260509191654 90 154 0.9 0.9 0.00 0.00 0.00 70 1007.9
20260509191150 91 270 0.0 0.0 0.00 0.00 0.00 70 1008.1
20260509190646 91 10 0.0 0.9 0.00 0.00 0.00 71 1008.4
20260509190144 90 319 0.9 0.9 0.00 0.00 0.00 71 1008.3
20260509185642 90 321 0.9 0.9 0.00 0.00 0.00 71 1008.3
20260509185137 91 311 0.0 0.0 0.00 0.00 0.00 71 1008.3
20260509184635 89 331 0.9 0.9 0.00 0.00 0.00 73 1008.4
20260509184132 89 338 1.7 1.7 0.00 0.00 0.00 76 1008.3
20260509183628 90 277 3.5 4.3 0.00 0.00 0.00 73 1008.5
20260509183123 88 297 0.0 0.0 0.00 0.00 0.00 75 1008.6
20260509182620 89 204 1.7 1.7 0.00 0.00 0.00 73 1008.8
20260509182117 89 340 1.7 1.7 0.00 0.00 0.00 74 1008.9
20260509181615 89 309 0.9 0.9 0.00 0.00 0.00 74 1008.9
20260509181112 89 273 0.9 0.9 0.00 0.00 0.00 75 1008.9
20260509180608 87 216 0.0 0.9 0.00 0.00 0.00 74 1008.8
20260509180105 88 279 0.9 0.9 0.00 0.00 0.00 74 1008.9
20260509175601 87 253 0.9 0.9 0.00 0.00 0.00 77 1008.9
20260509175058 88 272 2.6 2.6 0.00 0.00 0.00 78 1009.1
20260509174554 88 358 0.0 0.9 0.00 0.00 0.00 72 1009.3
20260509174049 87 345 1.7 1.7 0.00 0.00 0.00 75 1009.3
20260509173544 86 279 0.9 0.9 0.00 0.00 0.00 80 1009.3
20260509173040 86 291 0.9 0.9 0.00 0.00 0.00 79 1009.6
20260509172538 86 254 0.9 1.7 0.00 0.00 0.00 78 1009.6
20260509172033 86 242 2.6 2.6 0.00 0.00 0.00 78 1009.7
20260509171529 85 239 0.9 0.9 0.00 0.00 0.00 79 1009.6
20260509171026 84 249 2.6 2.6 0.00 0.00 0.00 80 1009.4
20260509170522 84 273 1.7 1.7 0.00 0.00 0.00 82 1009.4
20260509170018 85 216 2.6 4.3 0.00 0.00 0.00 79 1009.4
20260509165516 84 254 4.3 5.2 0.00 0.00 0.00 81 1009.8
20260509165013 83 253 4.3 4.3 0.00 0.00 0.00 83 1009.6
20260509164509 84 254 2.6 2.6 0.00 0.00 0.00 82 1009.5
20260509164004 84 259 1.7 1.7 0.00 0.00 0.00 82 1009.8
20260509163502 83 242 1.7 1.7 0.00 0.00 0.00 84 1009.6
20260509163001 83 225 0.9 1.7 0.00 0.00 0.00 84 1009.5
20260509162500 82 247 2.6 2.6 0.00 0.00 0.00 86 1009.6
20260509161955 82 212 0.9 1.7 0.00 0.00 0.00 86 1009.7
20260509161452 82 248 1.7 1.7 0.00 0.00 0.00 86 1009.3
20260509160947 81 234 3.5 4.3 0.00 0.00 0.00 87 1009.2
20260509160444 81 227 2.6 2.6 0.00 0.00 0.00 86 1009.2
20260509155938 82 221 2.6 2.6 0.00 0.00 0.00 87 1009.4
20260509155435 82 241 2.6 2.6 0.00 0.00 0.00 88 1009.3
20260509154932 82 182 2.6 2.6 0.00 0.00 0.00 88 1009.1
20260509154428 80 184 2.6 2.6 0.00 0.00 0.00 88 1009.1
20260509153926 81 247 3.5 4.3 0.00 0.00 0.00 89 1009.0
20260509153422 80 200 0.9 0.9 0.00 0.00 0.00 90 1009.1
20260509152920 80 228 0.9 1.7 0.00 0.00 0.00 90 1009.1
20260509152415 80 193 0.9 1.7 0.00 0.00 0.00 90 1009.4
20260509151912 79 172 0.9 1.7 0.00 0.00 0.00 92 1009.2
20260509151408 78 181 0.9 1.7 0.00 0.00 0.00 93 1009.3
20260509150907 77 238 1.7 1.7 0.00 0.00 0.00 93 1009.4
20260509150404 77 215 0.0 0.0 0.00 0.00 0.00 94 1009.5
20260509145902 76 203 0.9 1.7 0.00 0.00 0.00 95 1009.5
20260509145401 76 249 2.6 2.6 0.00 0.00 0.00 95 1009.5
20260509144858 76 217 2.6 2.6 0.00 0.00 0.00 95 1009.7
20260509144355 75 227 0.9 1.7 0.00 0.00 0.00 96 1009.6
20260509143852 75 263 0.9 0.9 0.00 0.00 0.00 96 1009.9
20260509143349 75 263 1.7 1.7 0.00 0.00 0.00 96 1009.6
20260509142845 75 234 1.7 1.7 0.00 0.00 0.00 96 1009.7
20260509142342 75 221 0.0 0.0 0.00 0.00 0.00 96 1009.8
20260509141837 75 227 0.9 0.9 0.00 0.00 0.00 96 1009.9
20260509141335 74 224 1.7 1.7 0.00 0.00 0.00 96 1009.6
20260509140831 74 218 1.7 1.7 0.00 0.00 0.00 97 1009.6
20260509140328 74 238 0.9 1.7 0.00 0.00 0.00 97 1009.5
20260509135826 74 225 1.7 1.7 0.00 0.00 0.00 97 1009.7
20260509135323 74 244 0.9 0.9 0.00 0.00 0.00 97 1009.8
20260509134821 74 220 0.9 1.7 0.00 0.00 0.00 98 1009.7
20260509134318 74 228 0.0 0.9 0.00 0.00 0.00 98 1009.9
20260509133815 74 234 0.0 0.0 0.00 0.00 0.00 98 1009.6
20260509133311 74 219 0.0 0.0 0.00 0.00 0.00 98 1009.7
20260509132810 74 189 0.0 0.0 0.00 0.00 0.00 98 1009.7
20260509132308 74 226 0.0 0.0 0.00 0.00 0.00 98 1009.7
20260509131804 73 250 0.0 0.0 0.00 0.00 0.00 98 1009.9
20260509131301 73 251 0.0 0.0 0.00 0.00 0.00 98 1010.0
20260509130757 73 251 0.0 0.0 0.00 0.00 0.00 98 1009.8
20260509130253 73 253 0.0 0.0 0.00 0.00 0.00 98 1010.0
20260509125750 73 253 0.0 0.0 0.00 0.00 0.00 98 1010.0
20260509125247 73 253 0.0 0.0 0.00 0.00 0.00 98 1009.8
20260509124743 73 253 0.0 0.0 0.00 0.00 0.00 98 1009.8
20260509124240 73 254 0.0 0.0 0.00 0.00 0.00 98 1009.7
20260509123738 73 258 0.0 0.0 0.00 0.00 0.00 98 1009.7
20260509123235 73 258 0.0 0.0 0.00 0.00 0.00 98 1009.6
20260509122731 73 256 0.0 0.0 0.00 0.00 0.00 98 1009.5
20260509122227 73 247 0.0 0.0 0.00 0.00 0.00 98 1009.5
20260509121725 73 314 0.0 0.0 0.00 0.00 0.00 98 1009.3
20260509121222 73 317 0.0 0.0 0.00 0.00 0.00 98 1009.2
20260509120720 73 317 0.0 0.0 0.00 0.00 0.00 98 1009.3
20260509120218 73 317 0.0 0.0 0.00 0.00 0.00 98 1009.4
20260509115715 73 317 0.0 0.0 0.00 0.00 0.00 98 1009.2
20260509115212 73 316 0.0 0.0 0.00 0.00 0.00 98 1009.4
20260509114711 73 316 0.0 0.0 0.00 0.00 0.00 98 1009.6
20260509114209 73 317 0.0 0.0 0.00 0.00 0.00 98 1009.6
20260509113707 73 316 0.0 0.0 0.00 0.00 0.00 98 1009.8
20260509113204 73 316 0.0 0.0 0.00 0.00 0.00 98 1010.0
20260509112701 73 316 0.0 0.0 0.00 0.00 0.00 98 1010.0
20260509112158 73 315 0.0 0.0 0.00 0.00 0.00 98 1010.0
20260509111655 73 315 0.0 0.0 0.00 0.00 0.00 98 1009.8
20260509111151 73 315 0.0 0.0 0.00 0.00 0.00 98 1009.9
20260509110649 73 315 0.0 0.0 0.00 0.00 0.00 98 1009.8
20260509110146 73 315 0.0 0.0 0.00 0.00 0.00 98 1009.9
20260509105644 73 316 0.0 0.0 0.00 0.00 0.00 98 1010.1
20260509105141 73 317 0.0 0.0 0.00 0.00 0.00 98 1009.6
20260509104638 73 317 0.0 0.0 0.00 0.00 0.00 98 1009.6
20260509104135 73 321 0.0 0.0 0.00 0.00 0.00 98 1009.7
20260509103633 73 357 0.0 0.0 0.00 0.00 0.00 98 1009.7
20260509103130 73 357 0.0 0.0 0.00 0.00 0.00 98 1009.5
20260509102628 73 359 0.0 0.0 0.00 0.00 0.00 98 1009.4
20260509102125 73 336 0.0 0.0 0.00 0.00 0.00 98 1009.3
20260509101621 73 336 0.0 0.0 0.00 0.00 0.00 98 1009.8
20260509101118 73 336 0.0 0.0 0.00 0.00 0.00 98 1010.0
20260509100615 73 336 0.0 0.0 0.00 0.00 0.00 98 1009.7
20260509100112 73 70 0.0 0.0 0.00 0.00 0.00 98 1009.5
20260509095608 73 139 0.0 0.0 0.00 0.00 0.00 98 1009.5
20260509095106 73 142 0.0 0.0 0.00 0.00 0.00 98 1009.0
20260509094602 73 146 0.0 0.0 0.00 0.00 0.00 98 1009.2
20260509094059 73 146 0.0 0.0 0.00 0.00 0.00 98 1009.1
20260509093558 73 146 0.0 0.0 0.00 0.00 0.00 98 1009.0
20260509093055 73 146 0.0 0.0 0.00 0.00 0.00 98 1008.7
20260509092552 73 146 0.0 0.0 0.00 0.00 0.00 98 1008.8
20260509092051 73 146 0.0 0.0 0.00 0.00 0.00 98 1008.9
20260509091548 73 146 0.0 0.0 0.00 0.00 0.00 98 1009.1
20260509091044 73 146 0.0 0.0 0.00 0.00 0.00 97 1008.9
20260509090542 73 146 0.0 0.0 0.00 0.00 0.00 97 1008.7
20260509090040 73 146 0.0 0.0 0.00 0.00 0.00 97 1008.8
20260509085537 73 146 0.9 0.9 0.00 0.00 0.00 97 1008.8
20260509085032 73 146 0.0 0.0 0.00 0.00 0.00 97 1009.1
20260509084530 73 145 0.0 0.0 0.00 0.00 0.00 97 1009.0
20260509084027 73 147 0.9 0.9 0.00 0.00 0.00 97 1009.1
20260509083524 73 143 0.0 0.9 0.00 0.00 0.00 97 1009.1
20260509083021 73 205 0.0 0.0 0.00 0.00 0.00 97 1009.4
20260509082518 73 207 0.0 0.0 0.00 0.00 0.00 97 1009.5
20260509082015 73 207 0.0 0.0 0.00 0.00 0.00 97 1009.6
20260509081513 73 208 0.0 0.0 0.00 0.00 0.00 97 1009.7
20260509081009 73 209 0.0 0.0 0.00 0.00 0.00 97 1009.6
20260509080507 73 209 0.0 0.0 0.00 0.00 0.00 97 1009.7
20260509080005 73 209 0.0 0.0 0.00 0.00 0.00 97 1009.7
20260509075502 73 209 0.0 0.0 0.00 0.00 0.00 97 1009.8
20260509075000 73 209 0.0 0.0 0.00 0.00 0.00 96 1009.7
20260509074457 73 209 0.0 0.0 0.00 0.00 0.00 96 1009.7
20260509073953 73 209 0.0 0.0 0.00 0.00 0.00 96 1009.5
20260509073450 73 209 0.0 0.0 0.00 0.00 0.00 96 1009.6
20260509072946 73 209 0.0 0.0 0.00 0.00 0.00 96 1009.5
20260509072443 73 209 0.0 0.0 0.00 0.00 0.00 96 1009.5
20260509071940 73 208 0.0 0.0 0.00 0.00 0.00 96 1009.4
20260509071436 73 208 0.0 0.0 0.00 0.00 0.00 96 1009.4
20260509070934 73 208 0.0 0.0 0.00 0.00 0.00 96 1009.4
20260509070431 73 199 0.0 0.0 0.00 0.00 0.00 96 1009.4
20260509065926 73 167 0.0 0.9 0.00 0.00 0.00 96 1009.4
20260509065422 73 190 0.0 0.9 0.00 0.00 0.00 96 1009.3
20260509064919 73 147 0.0 0.0 0.00 0.00 0.00 96 1009.0
20260509064417 73 176 0.9 0.9 0.00 0.00 0.00 96 1009.1
20260509063914 73 159 2.6 2.6 0.00 0.00 0.00 96 1009.2
20260509063410 73 151 1.7 1.7 0.00 0.00 0.00 96 1009.2
20260509062907 73 179 0.0 0.0 0.00 0.00 0.00 96 1009.2
20260509062404 73 188 0.0 0.9 0.00 0.00 0.00 96 1009.4
20260509061902 73 187 0.9 0.9 0.00 0.00 0.00 96 1009.2
20260509061400 73 142 0.0 0.9 0.00 0.00 0.00 96 1009.2
20260509060856 73 126 2.6 5.2 0.00 0.00 0.00 96 1009.2
20260509060353 73 121 0.0 0.9 0.00 0.00 0.00 96 1009.1
20260509055848 73 135 2.6 2.6 0.00 0.00 0.00 96 1009.2
20260509055344 73 176 3.5 5.2 0.00 0.00 0.00 96 1009.2
20260509054841 73 118 0.9 1.7 0.00 0.00 0.00 96 1009.2
20260509054338 73 132 3.5 4.3 0.00 0.00 0.00 96 1009.5
20260509053836 73 131 2.6 2.6 0.00 0.00 0.00 96 1009.2
20260509053333 73 87 2.6 2.6 0.00 0.00 0.00 96 1009.4
20260509052832 73 127 0.9 0.9 0.00 0.00 0.00 96 1009.2
20260509052329 73 115 2.6 2.6 0.00 0.00 0.00 96 1009.4
20260509051826 73 112 1.7 1.7 0.00 0.00 0.00 96 1009.3
20260509051324 73 152 3.5 5.2 0.00 0.00 0.00 96 1009.2
20260509050820 73 128 1.7 1.7 0.00 0.00 0.00 96 1009.1
20260509050317 73 146 1.7 2.6 0.00 0.00 0.00 96 1009.2
20260509045814 73 186 1.7 2.6 0.00 0.00 0.00 96 1009.1
20260509045311 73 125 2.6 2.6 0.00 0.00 0.00 96 1009.2
20260509044808 73 115 2.6 4.3 0.00 0.00 0.00 96 1009.3
20260509044306 73 146 1.7 2.6 0.00 0.00 0.00 96 1009.2
20260509043802 73 134 0.9 1.7 0.00 0.00 0.00 96 1009.2
20260509043258 73 99 0.9 0.9 0.00 0.00 0.00 96 1009.0
20260509042754 73 119 1.7 1.7 0.00 0.00 0.00 96 1009.0
20260509042251 73 137 2.6 2.6 0.00 0.00 0.00 96 1008.9
20260509041747 73 80 2.6 4.3 0.00 0.00 0.00 95 1009.0
20260509041245 73 124 2.6 2.6 0.00 0.00 0.00 95 1009.1
20260509040743 73 166 1.7 2.6 0.00 0.00 0.00 95 1009.1
20260509040240 74 160 1.7 2.6 0.00 0.00 0.00 95 1009.3
20260509035736 74 102 1.7 1.7 0.00 0.00 0.00 95 1009.1
20260509035233 74 107 0.0 0.9 0.00 0.00 0.00 95 1009.1
20260509034730 74 99 1.7 1.7 0.00 0.00 0.00 95 1009.0
20260509034228 74 116 2.6 2.6 0.00 0.00 0.00 95 1008.9
20260509033725 74 78 0.9 1.7 0.00 0.00 0.00 95 1008.5
20260509033222 74 104 1.7 1.7 0.00 0.00 0.00 95 1008.7
20260509032719 74 92 0.9 0.9 0.00 0.00 0.00 95 1008.9
20260509032216 74 124 0.9 1.7 0.00 0.00 0.00 95 1008.6
20260509031713 74 103 1.7 2.6 0.00 0.00 0.00 95 1008.9
20260509031211 74 160 0.9 0.9 0.00 0.00 0.00 95 1008.9
20260509030709 74 124 0.9 0.9 0.00 0.00 0.00 95 1008.9
20260509030206 74 89 1.7 2.6 0.00 0.00 0.00 95 1008.7
20260509025702 74 115 0.9 1.7 0.00 0.00 0.00 95 1008.7
20260509025158 74 107 0.0 0.0 0.00 0.00 0.00 95 1008.6
20260509024653 74 73 0.0 0.0 0.00 0.00 0.00 95 1008.4
20260509024149 74 88 0.0 0.9 0.00 0.00 0.00 95 1008.2
20260509023648 74 94 0.0 0.9 0.00 0.00 0.00 95 1008.3
20260509023144 74 129 0.9 0.9 0.00 0.00 0.00 95 1008.4
20260509022640 74 102 1.7 1.7 0.00 0.00 0.00 95 1008.1
20260509022138 74 129 0.0 0.0 0.00 0.00 0.00 94 1008.1
20260509021635 74 134 0.0 0.0 0.00 0.00 0.00 94 1007.9
20260509021132 74 136 0.9 1.7 0.00 0.00 0.00 94 1008.0
20260509020630 75 132 0.0 0.0 0.00 0.00 0.00 94 1008.0
20260509020127 75 136 1.7 1.7 0.00 0.00 0.00 94 1007.7
20260509015626 75 102 1.7 1.7 0.00 0.00 0.00 94 1007.7
20260509015123 75 103 0.9 0.9 0.00 0.00 0.00 94 1007.6
20260509014619 75 131 0.9 0.9 0.00 0.00 0.00 94 1007.9
20260509014116 75 84 1.7 1.7 0.00 0.00 0.00 94 1007.8
20260509013613 75 148 0.9 0.9 0.00 0.00 0.00 94 1008.0
20260509013108 75 141 0.9 0.9 0.00 0.00 0.00 93 1007.8
20260509012605 75 133 1.7 1.7 0.00 0.00 0.00 93 1007.9
20260509012102 75 86 0.0 0.0 0.00 0.00 0.00 93 1007.4
20260509011600 76 86 0.0 0.0 0.00 0.00 0.00 93 1007.4
20260509011057 76 86 0.0 0.0 0.00 0.00 0.00 92 1007.5
20260509010555 76 86 0.0 0.0 0.00 0.00 0.00 92 1007.6
20260509010051 77 85 0.0 0.0 0.00 0.00 0.00 92 1007.6
20260509005549 77 81 0.0 0.0 0.00 0.00 0.00 92 1007.8
20260509005044 77 109 0.0 0.0 0.00 0.00 0.00 92 1007.5
20260509004541 77 72 0.0 0.0 0.00 0.00 0.00 91 1007.6
20260509004038 77 67 0.0 0.0 0.00 0.00 0.00 91 1007.3
20260509003536 77 74 0.9 0.9 0.00 0.00 0.00 91 1007.6
20260509003033 77 38 0.0 0.0 0.00 0.00 0.00 91 1007.6
20260509002531 77 119 1.7 1.7 0.00 0.00 0.00 90 1007.9
20260509002028 77 92 3.5 4.3 0.00 0.00 0.00 90 1007.5
20260509001525 77 50 0.0 0.9 0.00 0.00 0.00 91 1007.5
20260509001021 77 76 0.9 0.9 0.00 0.00 0.00 91 1007.5
20260509000520 77 82 0.0 0.0 0.00 0.00 0.00 90 1007.4
20260509000015 77 118 0.0 0.0 0.00 0.00 0.00 90 1007.8
20260508235513 78 115 0.9 1.7 0.00 0.00 0.00 90 1007.7
20260508235009 78 108 0.9 0.9 0.00 0.00 0.00 89 1007.7
20260508234507 78 90 0.9 0.9 0.00 0.00 0.00 89 1007.6
20260508234004 78 110 0.0 0.0 0.00 0.00 0.00 89 1007.5
20260508233503 78 53 0.9 0.9 0.00 0.00 0.00 89 1007.4
20260508233000 78 51 1.7 1.7 0.00 0.00 0.00 88 1007.5
20260508232457 78 33 1.7 2.6 0.00 0.00 0.00 89 1007.8
20260508231954 78 77 0.0 0.0 0.00 0.00 0.00 88 1007.5
20260508231451 78 74 0.9 0.9 0.00 0.00 0.00 88 1007.6
20260508230948 78 40 0.0 0.0 0.00 0.00 0.00 89 1007.6
20260508230444 78 47 0.0 0.9 0.00 0.00 0.00 88 1007.6
20260508225941 78 21 0.9 0.9 0.00 0.00 0.00 87 1007.5
20260508225438 78 88 0.9 0.9 0.00 0.00 0.00 88 1007.5
20260508224936 78 70 0.0 0.9 0.00 0.00 0.00 88 1007.6
20260508224433 79 98 1.7 1.7 0.00 0.00 0.00 87 1007.5
20260508223930 79 59 0.9 0.9 0.00 0.00 0.00 86 1007.4
20260508223428 79 89 0.0 0.0 0.00 0.00 0.00 87 1007.5
20260508222925 79 77 0.0 0.0 0.00 0.00 0.00 87 1007.4
20260508222423 78 99 0.0 0.0 0.00 0.00 0.00 88 1007.8
20260508221919 78 47 0.9 0.9 0.00 0.00 0.00 87 1007.9
20260508221414 79 159 1.7 1.7 0.00 0.00 0.00 86 1007.8
20260508220911 79 79 1.7 1.7 0.00 0.00 0.00 86 1007.7
20260508220408 79 110 1.7 1.7 0.00 0.00 0.00 86 1007.9
20260508215904 79 125 1.7 2.6 0.00 0.00 0.00 85 1008.0
20260508215401 79 145 0.9 0.9 0.00 0.00 0.00 86 1007.9
20260508214858 79 81 0.9 1.7 0.00 0.00 0.00 86 1007.7
20260508214355 78 140 0.9 1.7 0.00 0.00 0.00 87 1007.8
20260508213851 78 166 0.9 0.9 0.00 0.00 0.00 87 1008.1
20260508213349 78 136 0.9 0.9 0.00 0.00 0.00 87 1008.0
20260508212844 78 138 0.9 0.9 0.00 0.00 0.00 87 1008.3
20260508212341 78 109 0.9 0.9 0.00 0.00 0.00 87 1008.3
20260508211836 78 54 0.0 0.0 0.00 0.00 0.00 86 1008.4
20260508211332 78 124 0.0 0.9 0.00 0.00 0.00 85 1008.4
20260508210830 79 10 0.0 0.0 0.00 0.00 0.00 84 1008.5
20260508210327 80 48 1.7 1.7 0.00 0.00 0.00 83 1008.6
20260508205824 80 90 0.9 0.9 0.00 0.00 0.00 82 1008.4
20260508205320 79 35 0.9 1.7 0.00 0.00 0.00 85 1008.4
20260508204816 79 117 1.7 1.7 0.00 0.00 0.00 84 1008.7
20260508204314 80 31 0.9 0.9 0.00 0.00 0.00 84 1008.8
20260508203810 79 184 0.0 0.0 0.00 0.00 0.00 83 1008.9
20260508203306 79 162 0.9 0.9 0.00 0.00 0.00 84 1008.9
20260508202801 79 35 0.0 0.9 0.00 0.00 0.00 83 1008.9
20260508202259 79 130 0.9 0.9 0.00 0.00 0.00 83 1009.0
20260508201756 78 152 0.9 1.7 0.00 0.00 0.00 86 1008.9